Regional Weather Roundup
Issued by NWS

Home | Current Version | Previous Version | Graphics & Text | Print | Product List | Glossary On
Versions: 1 2 3 4 5 6 7 8 9 10 11 12 13 14 15 16 17 18 19 20 21 22 23 24 25 26 27 28 29 30 31 32 33 34 35 36 37 38 39 40 41 42 43 44 45 46 47 48 49 50
000
ASUS43 KLOT 182111
RWRIL

ILLINOIS REGIONAL WEATHER ROUNDUP
NATIONAL WEATHER SERVICE CHICAGO/ROMEOVILLE IL
300 PM CST WED JAN 18 2017

NOTE: "FAIR" INDICATES FEW OR NO CLOUDS BELOW 12,000 FEET WITH NO
SIGNIFICANT WEATHER AND/OR OBSTRUCTIONS TO VISIBILITY.

* THESE STATIONS ARE NOT UNDER NWS QUALITY CONTROL. THEY ALSO MAY NOT
  REPORT WEATHER SUCH AS PRECIPITATION OR FOG.

ILZ001-002-007-009-015-016-024-182200-
NORTHWEST ILLINOIS

CITY           SKY/WX    TMP DP  RH WIND       PRES   REMARKS
MOLINE         MOSUNNY   41  34  76 SW7       30.04F
STERLING*      CLOUDY    37  33  85 SW7       30.06S WCI  32
SAVANNA*       CLOUDY    37  32  82 SW13      30.05R WCI  29
$$

ILZ003-004-008-010-011-017-018-182200-
NORTH CENTRAL ILLINOIS

CITY           SKY/WX    TMP DP  RH WIND       PRES   REMARKS
ROCKFORD       CLOUDY    36  31  82 SW8       30.05F WCI  30
FREEPORT*      CLOUDY    36  33  88 SW10      30.04F WCI  28
ROCHELLE*      CLOUDY    37  34  90 SW10      30.05F WCI  30
DE KALB*       CLOUDY    35  32  91 SW8       30.05S WCI  28
$$

ILZ005-006-012>014-019>023-182200-
NORTHEAST ILLINOIS

CITY           SKY/WX    TMP DP  RH WIND       PRES   REMARKS
CHICAGO-OHARE  CLOUDY    36  32  85 W12       30.05F WCI  28
CHICAGO-MIDWAY CLOUDY    36  31  82 SW9       30.06F WCI  29
AURORA         CLOUDY    37  32  82 SW8       30.06F WCI  31
LANSING*       CLOUDY    38  35  91 SW13      30.08S WCI  30
JOLIET*        CLOUDY    38  34  84 S7        30.08S WCI  33
WAUKEGAN       CLOUDY    36  32  85 SW10G18   30.03S FOG     WCI  28
DUPAGE AIRPORT CLOUDY    36  31  82 SW10      30.05F WCI  28
KANKAKEE*      CLOUDY    39  35  84 SW9       30.10R WCI  33
WHEELING       CLOUDY    36  30  79 SW7       30.07R WCI  30
MORRIS*        CLOUDY    37  33  84 SW10      30.07S WCI  30
ROMEOVILLE*    CLOUDY    36  35  96 SW6       30.07S WCI  31
NORTHERLY ISL    N/A     37  32  82 W7          N/A  WCI  32
$$

LMZ740>746-182200-
SOUTHERN LAKE MICHIGAN

STATION/POSITION SKY/WX   TEMP    WIND        PRES    VSBY  WAVE
                          AIR SEA DIR/SP/G                  HT/PER
                          (F)     (DEG/KT/KT) (MB)    (MI)  (FT/S)
HARRISON CRIB              37     220/ 16/ 20   N/A
BURNHAM HARBOR             37     260/  8/ 15   N/A
CALUMET HARBOR             37     220/  8/ 14 1017.5F
BURNS HARBOR               36     220/ 12/ 16 1019.0F
$$

ILZ025>027-034>036-040-047-049-050-058-095>099-182200-
WEST-CENTRAL ILLINOIS

CITY           SKY/WX    TMP DP  RH WIND       PRES   REMARKS
QUINCY         CLOUDY    42  36  79 S8        30.07F
GALESBURG*     MOSUNNY   42  36  81 S14       30.05F
MACOMB*        SUNNY     44  37  79 SW12      30.09F
JACKSONVILLE*  MOSUNNY   43  35  73 S10       30.11F
PITTSFIELD*    CLOUDY    43  36  75 S6        30.10F
$$

ILZ028>032-037-038-041>044-048-051>054-059>061-182200-
CENTRAL ILLINOIS

CITY           SKY/WX    TMP DP  RH WIND       PRES   REMARKS
PONTIAC        CLOUDY    39  37  93 SW12      30.10R WCI  32
BLOOMINGTON    PTSUNNY   39  34  82 SW12      30.08F WCI  32
DECATUR        PTSUNNY   41  36  82 S14       30.12S
PEORIA         MOSUNNY   39  34  82 SW12      30.09F WCI  32
LACON*         SUNNY     40  33  77 S9        30.07S
LINCOLN*       MOSUNNY   44  36  75 S9        30.11R
SPRINGFIELD    SUNNY     45  36  70 S8        30.10F
TAYLORVILLE    CLOUDY    43  36  76 S10       30.11F
$$

ILZ033-039-045-046-055>057-062-063-182200-
EAST-CENTRAL ILLINOIS

CITY           SKY/WX    TMP DP  RH WIND       PRES   REMARKS
CHAMPAIGN      CLOUDY    40  35  83 S15       30.11F
RANTOUL*       CLOUDY    41  37  84 S14       30.10F
MATTOON        CLOUDY    40  34  79 SW7       30.13F
PARIS*         CLOUDY    39  36  88 S13       30.15S WCI  32
$$

ILZ079-100>102-182200-
SOUTHWEST ILLINOIS

CITY           SKY/WX    TMP DP  RH WIND       PRES   REMARKS
ALTON          PTSUNNY   46  36  66 S6        30.12F
BELLEVILLE     CLOUDY    45  37  72 S6        30.12F
CAHOKIA*       CLOUDY    46  35  65 SE9       30.12F
SPARTA*        PTSUNNY   45  37  73 S6        30.14F
$$

ILZ064>066-069>071-074>076-080>082-084>086-088>090-092>094-182200-
SOUTH-CENTRAL ILLINOIS

CITY           SKY/WX    TMP DP  RH WIND       PRES   REMARKS
CARBONDALE     MOSUNNY   46  39  76 S6        30.14F
CAIRO*         CLOUDY    44  39  83 CALM      30.16S
EFFINGHAM*     CLOUDY    42  37  82 SE8       30.16R
MARION         PTSUNNY   48  37  66 SE6       30.15F
MT. VERNON     CLOUDY    45  37  73 S6        30.14F
CENTRALIA*     MOSUNNY   46  39  76 S6        30.12F
SALEM*         CLOUDY    46  35  65 S5        30.12F
METROPOLIS*    CLOUDY    45  38  78 CALM      30.16F
$$

ILZ067-068-072-073-078-083-087-091-182200-
SOUTHEAST ILLINOIS

CITY           SKY/WX    TMP DP  RH WIND       PRES   REMARKS
LAWRENCEVILLE  CLOUDY    40  36  86 S3        30.16F
FLORA*         CLOUDY    43  37  78 S7        30.15F
FAIRFIELD*     CLOUDY    43  36  78 CALM      30.14F
HARRISBURG*    PTSUNNY   45  38  76 CALM      30.15F
ROBINSON*      CLOUDY    39  35  86 S5        30.17F
CARMI*         CLOUDY    43  36  78 SE5       30.15F
$$

ABBREVIATIONS USED IN REMARKS
   TC - TEMPERATURE IN CELSIUS
  WCI - WIND CHILL INDEX
   HX - HEAT INDEX
  VSB - VISIBILITY
$$




USA.gov is the U.S. government's official web portal to all federal, state and local government web resources and services.